CZ-6A DEB, 54347

Orbit data source: Space-Track

CZ-6A DEB, 54347 is space debris in SSO originally from a launch on Fri, 11 Nov 2022 UTC launched from the Taiyaun Space Center, China (TSC). Debris objects in space refer to the collection of defunct objects orbiting the Earth. Examples of debris include non-operational satellites, rocket bodies, and fragments generated from explosions, collisions, or faulty payload assembly.

Loading next visibility...
Identifier
54347, 2022-151CS
Orbit
SSO
Country
Flag of CNCN / PRC
Related business
Manufacturer
SAST
Mission
Spacecraft
Bus & Motor
Unknown
Mass
Unknown
Launch date (UTC)
2022-11-11 (4 years ago)
Launch vehicle
Unknown
Launch site
Taiyaun Space Center, China (TSC)
Object type
Payload
Rocket body
Debris
Shape & HBR
Unknown shape, 0.1 m
Radar Cross Section
Small (<0.1 m²)

Expand to show TLE details & history
Last TLE update: 2 days ago

TLE from 2 days ago
0 CZ-6A DEB
1 54347U 22151CS  26262.00802163  .00000218  00000-0  96361-4 0  9992
2 54347  98.6622 282.9203 0104896 169.1685 191.1791 14.29595067200311
Epoch: 2026-09-19T00:11Z
TLE epoch observation values (Epoch: 2026-09-19T00:11:33.068Z)
Latitude
-0.00001°
Longitude
-77.89021°
Altitude
869.854 km
Speed
7.379 km/s
True Right ascension
18h 51m 40s
True Declination
0° 00' 00"
Sunlit
Object was in daylight at epoch
Visualization orbit readout
Latitude
Unknown
Longitude
Unknown
Altitude
Unknown
Speed
Unknown
Apparent Right ascension
Unknown
Apparent Declination
Unknown
Sunlit
N/A
Visualization observer readout
Local Sidereal Time
12:54:53
Azimuth
Unknown
Elevation
Unknown
Doppler factor
Unknown
Orbital elements
Apogee altitude
865.421 km
Perigee altitude
715.034 km
Semi-major axis
7,168.365 km
Eccentricity
0.01049
Inclination
98.6622°
RAAN
282.9203°
Arg. of periapsis
169.1685°
True anomaly
190.94902°
Mean anomaly
191.1791°
Eccentric anomaly
191.06377°
Mean motion
3.57613 °/min
Orbital period
100.67 mins
BSTAR
0.000096361
Loading maneuver chart data...
Computing Atmospheric mass density...
Loading historical data...
Loading historical data...
Loading historical data...
Loading historical data...
Loading historical data...
Loading historical data...
Loading historical data...

Documentation

Showing up to 5 results
|